Year,Month,Day,Hour,Minute,Value (Times are PST for temperature in C)
2014,02,06,00,00,-1.70
2014,02,06,00,01,-1.70
2014,02,06,00,02,-1.80
2014,02,06,00,03,-1.80
2014,02,06,00,04,-1.80
2014,02,06,00,05,-1.80
2014,02,06,00,06,-1.80
2014,02,06,00,07,-1.80
2014,02,06,00,08,-1.80
2014,02,06,00,09,-1.80
2014,02,06,00,10,-1.80
2014,02,06,00,11,-1.80
2014,02,06,00,12,-1.80
2014,02,06,00,13,-1.80
2014,02,06,00,14,-1.80
2014,02,06,00,15,-1.80
2014,02,06,00,16,-1.80
2014,02,06,00,17,-1.80
2014,02,06,00,18,-1.80
2014,02,06,00,19,-1.80
2014,02,06,00,20,-1.80
2014,02,06,00,21,-1.80
2014,02,06,00,22,-1.80
2014,02,06,00,23,-1.80
2014,02,06,00,24,-1.80
2014,02,06,00,25,-1.90
2014,02,06,00,26,-1.90
2014,02,06,00,27,-1.90
2014,02,06,00,28,-1.90
2014,02,06,00,29,-1.90
2014,02,06,00,30,-1.90
2014,02,06,00,31,-1.90
2014,02,06,00,32,-1.90
2014,02,06,00,33,-1.90
2014,02,06,00,34,-1.90
2014,02,06,00,35,-1.90
2014,02,06,00,36,-1.90
2014,02,06,00,37,-1.90
2014,02,06,00,38,-1.90
2014,02,06,00,39,-1.90
2014,02,06,00,40,-1.90
2014,02,06,00,41,-1.90
2014,02,06,00,42,-1.90
2014,02,06,00,43,-2.00
2014,02,06,00,44,-2.00
2014,02,06,00,45,-2.00
2014,02,06,00,46,-2.00
2014,02,06,00,47,-2.00
2014,02,06,00,48,-2.00
2014,02,06,00,49,-2.00
2014,02,06,00,50,-2.00
2014,02,06,00,51,-2.00
2014,02,06,00,52,-2.00
2014,02,06,00,53,-2.00
2014,02,06,00,54,-2.00
2014,02,06,00,55,-2.00
2014,02,06,00,56,-2.00
2014,02,06,00,57,-2.00
2014,02,06,00,58,-2.10
2014,02,06,00,59,-2.10
2014,02,06,01,00,-2.10
2014,02,06,01,01,-2.10
2014,02,06,01,02,-2.10
2014,02,06,01,03,-2.10
2014,02,06,01,04,-2.10
2014,02,06,01,05,-2.10
2014,02,06,01,06,-2.20
2014,02,06,01,07,-2.20
2014,02,06,01,08,-2.20
2014,02,06,01,09,-2.20
2014,02,06,01,10,-2.10
2014,02,06,01,11,-2.10
2014,02,06,01,12,-2.10
2014,02,06,01,13,-2.10
2014,02,06,01,14,-2.10
2014,02,06,01,15,-2.10
2014,02,06,01,16,-2.10
2014,02,06,01,17,-2.10
2014,02,06,01,18,-2.10
2014,02,06,01,19,-2.20
2014,02,06,01,20,-2.10
2014,02,06,01,21,-2.20
2014,02,06,01,22,-2.20
2014,02,06,01,23,-2.20
2014,02,06,01,24,-2.10
2014,02,06,01,25,-2.10
2014,02,06,01,26,-2.10
2014,02,06,01,27,-2.10
2014,02,06,01,28,-2.10
2014,02,06,01,29,-2.10
2014,02,06,01,30,-2.10
2014,02,06,01,31,-2.10
2014,02,06,01,32,-2.10
2014,02,06,01,33,-2.10
2014,02,06,01,34,-2.20
2014,02,06,01,35,-2.20
2014,02,06,01,36,-2.20
2014,02,06,01,37,-2.20
2014,02,06,01,38,-2.20
2014,02,06,01,39,-2.20
2014,02,06,01,40,-2.20
2014,02,06,01,41,-2.20
2014,02,06,01,42,-2.20
2014,02,06,01,43,-2.20
2014,02,06,01,44,-2.20
2014,02,06,01,45,-2.20
2014,02,06,01,46,-2.20
2014,02,06,01,47,-2.20
2014,02,06,01,48,-2.20
2014,02,06,01,49,-2.20
2014,02,06,01,50,-2.20
2014,02,06,01,51,-2.20
2014,02,06,01,52,-2.20
2014,02,06,01,53,-2.20
2014,02,06,01,54,-2.20
2014,02,06,01,55,-2.20
2014,02,06,01,56,-2.20
2014,02,06,01,57,-2.20
2014,02,06,01,58,-2.20
2014,02,06,01,59,-2.20
2014,02,06,02,00,-2.20
2014,02,06,02,01,-2.20
2014,02,06,02,02,-2.20
2014,02,06,02,03,-2.20
2014,02,06,02,04,-2.20
2014,02,06,02,05,-2.20
2014,02,06,02,06,-2.20
2014,02,06,02,07,-2.20
2014,02,06,02,08,-2.20
2014,02,06,02,09,-2.20
2014,02,06,02,10,-2.20
2014,02,06,02,11,-2.20
2014,02,06,02,12,-2.30
2014,02,06,02,13,-2.30
2014,02,06,02,14,-2.30
2014,02,06,02,15,-2.30
2014,02,06,02,16,-2.30
2014,02,06,02,17,-2.30
2014,02,06,02,18,-2.30
2014,02,06,02,19,-2.30
2014,02,06,02,20,-2.30
2014,02,06,02,21,-2.30
2014,02,06,02,22,-2.30
2014,02,06,02,23,-2.30
2014,02,06,02,24,-2.30
2014,02,06,02,25,-2.30
2014,02,06,02,26,-2.30
2014,02,06,02,27,-2.30
2014,02,06,02,28,-2.40
2014,02,06,02,29,-2.40
2014,02,06,02,30,-2.40
2014,02,06,02,31,-2.40
2014,02,06,02,32,-2.40
2014,02,06,02,33,-2.40
2014,02,06,02,34,-2.40
2014,02,06,02,35,-2.40
2014,02,06,02,36,-2.40
2014,02,06,02,37,-2.40
2014,02,06,02,38,-2.40
2014,02,06,02,39,-2.40
2014,02,06,02,40,-2.40
2014,02,06,02,41,-2.40
2014,02,06,02,42,-2.50
2014,02,06,02,43,-2.50
2014,02,06,02,44,-2.50
2014,02,06,02,45,-2.50
2014,02,06,02,46,-2.50
2014,02,06,02,47,-2.50
2014,02,06,02,48,-2.60
2014,02,06,02,49,-2.60
2014,02,06,02,50,-2.60
2014,02,06,02,51,-2.60
2014,02,06,02,52,-2.60
2014,02,06,02,53,-2.60
2014,02,06,02,54,-2.60
2014,02,06,02,55,-2.60
2014,02,06,02,56,-2.60
2014,02,06,02,57,-2.60
2014,02,06,02,58,-2.60
2014,02,06,02,59,-2.60
2014,02,06,03,00,-2.60
2014,02,06,03,01,-2.60
2014,02,06,03,02,-2.60
2014,02,06,03,03,-2.60
2014,02,06,03,04,-2.60
2014,02,06,03,05,-2.60
2014,02,06,03,06,-2.60
2014,02,06,03,07,-2.70
2014,02,06,03,08,-2.70
2014,02,06,03,09,-2.70
2014,02,06,03,10,-2.70
2014,02,06,03,11,-2.70
2014,02,06,03,12,-2.70
2014,02,06,03,13,-2.70
2014,02,06,03,14,-2.70
2014,02,06,03,15,-2.70
2014,02,06,03,16,-2.70
2014,02,06,03,17,-2.70
2014,02,06,03,18,-2.60
2014,02,06,03,19,-2.60
2014,02,06,03,20,-2.60
2014,02,06,03,21,-2.60
2014,02,06,03,22,-2.60
2014,02,06,03,23,-2.60
2014,02,06,03,24,-2.60
2014,02,06,03,25,-2.60
2014,02,06,03,26,-2.60
2014,02,06,03,27,-2.60
2014,02,06,03,28,-2.60
2014,02,06,03,29,-2.60
2014,02,06,03,30,-2.60
2014,02,06,03,31,-2.60
2014,02,06,03,32,-2.60
2014,02,06,03,33,-2.60
2014,02,06,03,34,-2.60
2014,02,06,03,35,-2.60
2014,02,06,03,36,-2.60
2014,02,06,03,37,-2.50
2014,02,06,03,38,-2.50
2014,02,06,03,39,-2.50
2014,02,06,03,40,-2.50
2014,02,06,03,41,-2.50
2014,02,06,03,42,-2.50
2014,02,06,03,43,-2.60
2014,02,06,03,44,-2.60
2014,02,06,03,45,-2.60
2014,02,06,03,46,-2.60
2014,02,06,03,47,-2.60
2014,02,06,03,48,-2.60
2014,02,06,03,49,-2.60
2014,02,06,03,50,-2.60
2014,02,06,03,51,-2.60
2014,02,06,03,52,-2.70
2014,02,06,03,53,-2.70
2014,02,06,03,54,-2.70
2014,02,06,03,55,-2.70
2014,02,06,03,56,-2.70
2014,02,06,03,57,-2.70
2014,02,06,03,58,-2.70
2014,02,06,03,59,-2.70
2014,02,06,04,00,-2.70
2014,02,06,04,01,-2.70
2014,02,06,04,02,-2.70
2014,02,06,04,03,-2.70
2014,02,06,04,04,-2.70
2014,02,06,04,05,-2.70
2014,02,06,04,06,-2.70
2014,02,06,04,07,-2.70
2014,02,06,04,08,-2.80
2014,02,06,04,09,-2.80
2014,02,06,04,10,-2.80
2014,02,06,04,11,-2.80
2014,02,06,04,12,-2.80
2014,02,06,04,13,-2.80
2014,02,06,04,14,-2.80
2014,02,06,04,15,-2.80
2014,02,06,04,16,-2.80
2014,02,06,04,17,-2.80
2014,02,06,04,18,-2.80
2014,02,06,04,19,-2.80
2014,02,06,04,20,-2.80
2014,02,06,04,21,-2.80
2014,02,06,04,22,-2.80
2014,02,06,04,23,-2.80
2014,02,06,04,24,-2.80
2014,02,06,04,25,-2.80
2014,02,06,04,26,-2.80
2014,02,06,04,27,-2.70
2014,02,06,04,28,-2.70
2014,02,06,04,29,-2.70
2014,02,06,04,30,-2.70
2014,02,06,04,31,-2.70
2014,02,06,04,32,-2.70
2014,02,06,04,33,-2.70
2014,02,06,04,34,-2.70
2014,02,06,04,35,-2.70
2014,02,06,04,36,-2.70
2014,02,06,04,37,-2.70
2014,02,06,04,38,-2.70
2014,02,06,04,39,-2.70
2014,02,06,04,40,-2.70
2014,02,06,04,41,-2.70
2014,02,06,04,42,-2.70
2014,02,06,04,43,-2.70
2014,02,06,04,44,-2.70
2014,02,06,04,45,-2.70
2014,02,06,04,46,-2.70
2014,02,06,04,47,-2.70
2014,02,06,04,48,-2.80
2014,02,06,04,49,-2.80
2014,02,06,04,50,-2.80
2014,02,06,04,51,-2.80
2014,02,06,04,52,-2.80
2014,02,06,04,53,-2.80
2014,02,06,04,54,-2.80
2014,02,06,04,55,-2.80
2014,02,06,04,56,-2.80
2014,02,06,04,57,-2.80
2014,02,06,04,58,-2.80
2014,02,06,04,59,-2.80
2014,02,06,05,00,-2.80
2014,02,06,05,01,-2.80
2014,02,06,05,02,-2.80
2014,02,06,05,03,-2.80
2014,02,06,05,04,-2.80
2014,02,06,05,05,-2.80
2014,02,06,05,06,-2.80
2014,02,06,05,07,-2.80
2014,02,06,05,08,-2.80
2014,02,06,05,09,-2.80
2014,02,06,05,10,-2.80
2014,02,06,05,11,-2.80
2014,02,06,05,12,-2.80
2014,02,06,05,13,-2.80
2014,02,06,05,14,-2.80
2014,02,06,05,15,-2.80
2014,02,06,05,16,-2.80
2014,02,06,05,17,-2.80
2014,02,06,05,18,-2.80
2014,02,06,05,19,-2.80
2014,02,06,05,20,-2.80
2014,02,06,05,21,-2.80
2014,02,06,05,22,-2.80
2014,02,06,05,23,-2.80
2014,02,06,05,24,-2.90
2014,02,06,05,25,-2.90
2014,02,06,05,26,-2.90
2014,02,06,05,27,-2.90
2014,02,06,05,28,-2.90
2014,02,06,05,29,-2.90
2014,02,06,05,30,-3.00
2014,02,06,05,31,-3.00
2014,02,06,05,32,-3.00
2014,02,06,05,33,-3.00
2014,02,06,05,34,-3.00
2014,02,06,05,35,-3.00
2014,02,06,05,36,-3.00
2014,02,06,05,37,-3.00
2014,02,06,05,38,-3.00
2014,02,06,05,39,-3.00
2014,02,06,05,40,-3.00
2014,02,06,05,41,-3.00
2014,02,06,05,42,-3.00
2014,02,06,05,43,-3.00
2014,02,06,05,44,-3.00
2014,02,06,05,45,-3.00
2014,02,06,05,46,-3.00
2014,02,06,05,47,-3.00
2014,02,06,05,48,-3.00
2014,02,06,05,49,-3.00
2014,02,06,05,50,-2.90
2014,02,06,05,51,-2.90
2014,02,06,05,52,-2.90
2014,02,06,05,53,-2.90
2014,02,06,05,54,-2.90
2014,02,06,05,55,-3.00
2014,02,06,05,56,-3.00
2014,02,06,05,57,-3.00
2014,02,06,05,58,-2.90
2014,02,06,05,59,-3.00
2014,02,06,06,00,-3.00
2014,02,06,06,01,-3.00
2014,02,06,06,02,-3.00
2014,02,06,06,03,-3.00
2014,02,06,06,04,-3.00
2014,02,06,06,05,-3.10
2014,02,06,06,06,-3.10
2014,02,06,06,07,-3.10
2014,02,06,06,08,-3.10
2014,02,06,06,09,-3.10
2014,02,06,06,10,-3.10
2014,02,06,06,11,-3.10
2014,02,06,06,12,-3.10
2014,02,06,06,13,-3.10
2014,02,06,06,14,-3.10
2014,02,06,06,15,-3.00
2014,02,06,06,16,-3.00
2014,02,06,06,17,-3.00
2014,02,06,06,18,-3.00
2014,02,06,06,19,-3.00
2014,02,06,06,20,-3.00
2014,02,06,06,21,-3.00
2014,02,06,06,22,-3.00
2014,02,06,06,23,-3.00
2014,02,06,06,24,-3.00
2014,02,06,06,25,-3.00
2014,02,06,06,26,-3.00
2014,02,06,06,27,-3.00
2014,02,06,06,28,-3.00
2014,02,06,06,29,-3.00
2014,02,06,06,30,-3.00
2014,02,06,06,31,-3.00
2014,02,06,06,32,-3.00
2014,02,06,06,33,-2.90
2014,02,06,06,34,-2.90
2014,02,06,06,35,-2.90
2014,02,06,06,36,-2.90
2014,02,06,06,37,-2.90
2014,02,06,06,38,-2.90
2014,02,06,06,39,-2.90
2014,02,06,06,40,-2.90
2014,02,06,06,41,-2.90
2014,02,06,06,42,-2.90
2014,02,06,06,43,-2.90
2014,02,06,06,44,-2.90
2014,02,06,06,45,-2.90
2014,02,06,06,46,-3.00
2014,02,06,06,47,-3.00
2014,02,06,06,48,-3.00
2014,02,06,06,49,-3.00
2014,02,06,06,50,-3.00
2014,02,06,06,51,-3.00
2014,02,06,06,52,-3.00
2014,02,06,06,53,-3.00
2014,02,06,06,54,-3.00
2014,02,06,06,55,-3.00
2014,02,06,06,56,-3.00
2014,02,06,06,57,-3.00
2014,02,06,06,58,-3.00
2014,02,06,06,59,-3.00
2014,02,06,07,00,-3.00
2014,02,06,07,01,-3.00
2014,02,06,07,02,-3.00
2014,02,06,07,03,-3.00
2014,02,06,07,04,-3.10
2014,02,06,07,05,-3.10
2014,02,06,07,06,-3.10
2014,02,06,07,07,-3.10
2014,02,06,07,08,-3.10
2014,02,06,07,09,-3.10
2014,02,06,07,10,-3.00
2014,02,06,07,11,-3.00
2014,02,06,07,12,-3.00
2014,02,06,07,13,-3.00
2014,02,06,07,14,-3.00
2014,02,06,07,15,-3.00
2014,02,06,07,16,-3.00
2014,02,06,07,17,-3.00
2014,02,06,07,18,-3.00
2014,02,06,07,19,-3.00
2014,02,06,07,20,-3.00
2014,02,06,07,21,-3.00
2014,02,06,07,22,-3.10
2014,02,06,07,23,-3.00
2014,02,06,07,24,-3.00
2014,02,06,07,25,-3.00
2014,02,06,07,26,-3.00
2014,02,06,07,27,-3.10
2014,02,06,07,28,-3.00
2014,02,06,07,29,-3.00
2014,02,06,07,30,-3.00
2014,02,06,07,31,-3.00
2014,02,06,07,32,-3.00
2014,02,06,07,33,-3.00
2014,02,06,07,34,-3.00
2014,02,06,07,35,-3.00
2014,02,06,07,36,-3.00
2014,02,06,07,37,-3.00
2014,02,06,07,38,-3.00
2014,02,06,07,39,-3.10
2014,02,06,07,40,-3.00
2014,02,06,07,41,-3.00
2014,02,06,07,42,-3.00
2014,02,06,07,43,-3.00
2014,02,06,07,44,-3.00
2014,02,06,07,45,-3.00
2014,02,06,07,46,-3.00
2014,02,06,07,47,-3.00
2014,02,06,07,48,-3.00
2014,02,06,07,49,-3.00
2014,02,06,07,50,-3.00
2014,02,06,07,51,-3.00
2014,02,06,07,52,-3.00
2014,02,06,07,53,-3.10
2014,02,06,07,54,-3.10
2014,02,06,07,55,-3.10
2014,02,06,07,56,-3.10
2014,02,06,07,57,-3.10
2014,02,06,07,58,-3.10
2014,02,06,07,59,-3.10
2014,02,06,08,00,-3.10
2014,02,06,08,01,-3.10
2014,02,06,08,02,-3.10
2014,02,06,08,03,-3.10
2014,02,06,08,04,-3.10
2014,02,06,08,05,-3.00
2014,02,06,08,06,-3.00
2014,02,06,08,07,-3.00
2014,02,06,08,08,-3.00
2014,02,06,08,09,-2.90
2014,02,06,08,10,-2.90
2014,02,06,08,11,-2.90
2014,02,06,08,12,-2.90
2014,02,06,08,13,-3.00
2014,02,06,08,14,-3.00
2014,02,06,08,15,-3.00
2014,02,06,08,16,-3.00
2014,02,06,08,17,-3.00
2014,02,06,08,18,-3.00
2014,02,06,08,19,-3.00
2014,02,06,08,20,-3.00
2014,02,06,08,21,-3.00
2014,02,06,08,22,-3.00
2014,02,06,08,23,-3.00
2014,02,06,08,24,-3.00
2014,02,06,08,25,-3.00
2014,02,06,08,26,-3.00
2014,02,06,08,27,-3.00
2014,02,06,08,28,-3.00
2014,02,06,08,29,-2.90
2014,02,06,08,30,-2.90
2014,02,06,08,31,-2.90
2014,02,06,08,32,-2.90
2014,02,06,08,33,-2.90
2014,02,06,08,34,-2.90
2014,02,06,08,35,-2.90
2014,02,06,08,36,-2.90
2014,02,06,08,37,-2.90
2014,02,06,08,38,-2.90
2014,02,06,08,39,-2.90
2014,02,06,08,40,-2.90
2014,02,06,08,41,-2.90
2014,02,06,08,42,-2.90
2014,02,06,08,43,-2.80
2014,02,06,08,44,-2.80
2014,02,06,08,45,-2.80
2014,02,06,08,46,-2.80
2014,02,06,08,47,-2.80
2014,02,06,08,48,-2.80
2014,02,06,08,49,-2.70
2014,02,06,08,50,-2.70
2014,02,06,08,51,-2.70
2014,02,06,08,52,-2.70
2014,02,06,08,53,-2.70
2014,02,06,08,54,-2.70
2014,02,06,08,55,-2.70
2014,02,06,08,56,-2.70
2014,02,06,08,57,-2.60
2014,02,06,08,58,-2.60
2014,02,06,08,59,-2.60
2014,02,06,09,00,-2.60
2014,02,06,09,01,-2.60
2014,02,06,09,02,-2.60
2014,02,06,09,03,-2.60
2014,02,06,09,04,-2.50
2014,02,06,09,05,-2.50
2014,02,06,09,06,-2.50
2014,02,06,09,07,-2.40
2014,02,06,09,08,-2.40
2014,02,06,09,09,-2.40
2014,02,06,09,10,-2.40
2014,02,06,09,11,-2.40
2014,02,06,09,12,-2.40
2014,02,06,09,13,-2.40
2014,02,06,09,14,-2.40
2014,02,06,09,15,-2.40
2014,02,06,09,16,-2.30
2014,02,06,09,17,-2.30
2014,02,06,09,18,-2.30
2014,02,06,09,19,-2.30
2014,02,06,09,20,-2.30
2014,02,06,09,21,-2.30
2014,02,06,09,22,-2.30
2014,02,06,09,23,-2.30
2014,02,06,09,24,-2.30
2014,02,06,09,25,-2.30
2014,02,06,09,26,-2.20
2014,02,06,09,27,-2.20
2014,02,06,09,28,-2.20
2014,02,06,09,29,-2.20
2014,02,06,09,30,-2.20
2014,02,06,09,31,-2.20
2014,02,06,09,32,-2.20
2014,02,06,09,33,-2.20
2014,02,06,09,34,-2.20
2014,02,06,09,35,-2.20
2014,02,06,09,36,-2.20
2014,02,06,09,37,-2.10
2014,02,06,09,38,-2.10
2014,02,06,09,39,-2.10
2014,02,06,09,40,-2.10
2014,02,06,09,41,-2.10
2014,02,06,09,42,-2.10
2014,02,06,09,43,-2.00
2014,02,06,09,44,-2.00
2014,02,06,09,45,-2.00
2014,02,06,09,46,-1.90
2014,02,06,09,47,-1.90
2014,02,06,09,48,-1.90
2014,02,06,09,49,-1.90
2014,02,06,09,50,-1.80
2014,02,06,09,51,-1.80
2014,02,06,09,52,-1.80
2014,02,06,09,53,-1.80
2014,02,06,09,54,-1.80
2014,02,06,09,55,-1.80
2014,02,06,09,56,-1.80
2014,02,06,09,57,-1.80
2014,02,06,09,58,-1.70
2014,02,06,09,59,-1.70
2014,02,06,10,00,-1.70
2014,02,06,10,01,-1.70
2014,02,06,10,02,-1.70
2014,02,06,10,03,-1.70
2014,02,06,10,04,-1.70
2014,02,06,10,05,-1.60
2014,02,06,10,06,-1.60
2014,02,06,10,07,-1.60
2014,02,06,10,08,-1.60
2014,02,06,10,09,-1.60
2014,02,06,10,10,-1.60
2014,02,06,10,11,-1.60
2014,02,06,10,12,-1.60
2014,02,06,10,13,-1.60
2014,02,06,10,14,-1.60
2014,02,06,10,15,-1.60
2014,02,06,10,16,-1.60
2014,02,06,10,17,-1.60
2014,02,06,10,18,-1.60
2014,02,06,10,19,-1.60
2014,02,06,10,20,-1.60
2014,02,06,10,21,-1.60
2014,02,06,10,22,-1.60
2014,02,06,10,23,-1.60
2014,02,06,10,24,-1.60
2014,02,06,10,25,-1.50
2014,02,06,10,26,-1.50
2014,02,06,10,27,-1.50
2014,02,06,10,28,-1.40
2014,02,06,10,29,-1.40
2014,02,06,10,30,-1.40
2014,02,06,10,31,-1.40
2014,02,06,10,32,-1.40
2014,02,06,10,33,-1.40
2014,02,06,10,34,-1.40
2014,02,06,10,35,-1.30
2014,02,06,10,36,-1.30
2014,02,06,10,37,-1.30
2014,02,06,10,38,-1.30
2014,02,06,10,39,-1.30
2014,02,06,10,40,-1.30
2014,02,06,10,41,-1.30
2014,02,06,10,42,-1.40
2014,02,06,10,43,-1.40
2014,02,06,10,44,-1.30
2014,02,06,10,45,-1.30
2014,02,06,10,46,-1.30
2014,02,06,10,47,-1.30
2014,02,06,10,48,-1.30
2014,02,06,10,49,-1.20
2014,02,06,10,50,-1.20
2014,02,06,10,51,-1.20
2014,02,06,10,52,-1.20
2014,02,06,10,53,-1.20
2014,02,06,10,54,-1.20
2014,02,06,10,55,-1.10
2014,02,06,10,56,-1.10
2014,02,06,10,57,-1.10
2014,02,06,10,58,-1.10
2014,02,06,10,59,-1.10
2014,02,06,11,00,-1.10
2014,02,06,11,01,-1.10
2014,02,06,11,02,-1.00
2014,02,06,11,03,-1.00
2014,02,06,11,04,-1.00
2014,02,06,11,05,-0.90
2014,02,06,11,06,-0.90
2014,02,06,11,07,-0.90
2014,02,06,11,08,-0.90
2014,02,06,11,09,-0.90
2014,02,06,11,10,-0.90
2014,02,06,11,11,-0.90
2014,02,06,11,12,-0.80
2014,02,06,11,13,-0.80
2014,02,06,11,14,-0.80
2014,02,06,11,15,-0.70
2014,02,06,11,16,-0.70
2014,02,06,11,17,-0.70
2014,02,06,11,18,-0.70
2014,02,06,11,19,-0.60
2014,02,06,11,20,-0.60
2014,02,06,11,21,-0.50
2014,02,06,11,22,-0.40
2014,02,06,11,23,-0.40
2014,02,06,11,24,-0.40
2014,02,06,11,25,-0.30
2014,02,06,11,26,-0.30
2014,02,06,11,27,-0.30
2014,02,06,11,28,-0.30
2014,02,06,11,29,-0.30
2014,02,06,11,30,-0.40
2014,02,06,11,31,-0.40
2014,02,06,11,32,-0.40
2014,02,06,11,33,-0.40
2014,02,06,11,34,-0.40
2014,02,06,11,35,-0.40
2014,02,06,11,36,-0.40
2014,02,06,11,37,-0.30
2014,02,06,11,38,-0.20
2014,02,06,11,39,-0.20
2014,02,06,11,40,-0.10
2014,02,06,11,41,0.00
2014,02,06,11,42,0.00
2014,02,06,11,43,0.10
2014,02,06,11,44,0.00
2014,02,06,11,45,-0.10
2014,02,06,11,46,-0.20
2014,02,06,11,47,-0.30
2014,02,06,11,48,-0.30
2014,02,06,11,49,-0.40
2014,02,06,11,50,-0.40
2014,02,06,11,51,-0.40
2014,02,06,11,52,-0.40
2014,02,06,11,53,-0.40
2014,02,06,11,54,-0.30
2014,02,06,11,55,-0.30
2014,02,06,11,56,-0.20
2014,02,06,11,57,-0.20
2014,02,06,11,58,-0.10
2014,02,06,11,59,-0.10
2014,02,06,12,00,-0.10
2014,02,06,12,01,-0.20
2014,02,06,12,02,-0.10
2014,02,06,12,03,-0.10
2014,02,06,12,04,0.00
2014,02,06,12,05,0.00
2014,02,06,12,06,0.10
2014,02,06,12,07,0.10
2014,02,06,12,08,0.10
2014,02,06,12,09,0.10
2014,02,06,12,10,0.10
2014,02,06,12,11,0.10
2014,02,06,12,12,0.10
2014,02,06,12,13,0.10
2014,02,06,12,14,0.00
2014,02,06,12,15,0.00
2014,02,06,12,16,0.00
2014,02,06,12,17,-0.10
2014,02,06,12,18,0.00
2014,02,06,12,19,0.00
2014,02,06,12,20,0.10
2014,02,06,12,21,0.20
2014,02,06,12,22,0.30
2014,02,06,12,23,0.30
2014,02,06,12,24,0.30
2014,02,06,12,25,0.30
2014,02,06,12,26,0.30
2014,02,06,12,27,0.30
2014,02,06,12,28,0.20
2014,02,06,12,29,0.20
2014,02,06,12,30,0.20
2014,02,06,12,31,0.20
2014,02,06,12,32,0.20
2014,02,06,12,33,0.30
2014,02,06,12,34,0.30
2014,02,06,12,35,0.20
2014,02,06,12,36,0.20
2014,02,06,12,37,0.10
2014,02,06,12,38,0.00
2014,02,06,12,39,0.00
2014,02,06,12,40,-0.10
2014,02,06,12,41,-0.20
2014,02,06,12,42,-0.20
2014,02,06,12,43,-0.20
2014,02,06,12,44,-0.20
2014,02,06,12,45,-0.20
2014,02,06,12,46,-0.20
2014,02,06,12,47,-0.10
2014,02,06,12,48,-0.10
2014,02,06,12,49,-0.10
2014,02,06,12,50,-0.10
2014,02,06,12,51,-0.10
2014,02,06,12,52,0.00
2014,02,06,12,53,0.00
2014,02,06,12,54,0.10
2014,02,06,12,55,0.20
2014,02,06,12,56,0.20
2014,02,06,12,57,0.30
2014,02,06,12,58,0.30
2014,02,06,12,59,0.30
2014,02,06,13,00,0.30
2014,02,06,13,01,0.40
2014,02,06,13,02,0.40
2014,02,06,13,03,0.50
2014,02,06,13,04,0.60
2014,02,06,13,05,0.60
2014,02,06,13,06,0.60
2014,02,06,13,07,0.60
2014,02,06,13,08,0.60
2014,02,06,13,09,0.60
2014,02,06,13,10,0.60
2014,02,06,13,11,0.50
2014,02,06,13,12,0.50
2014,02,06,13,13,0.30
2014,02,06,13,14,0.30
2014,02,06,13,15,0.30
2014,02,06,13,16,0.20
2014,02,06,13,17,0.20
2014,02,06,13,18,0.20
2014,02,06,13,19,0.20
2014,02,06,13,20,0.20
2014,02,06,13,21,0.20
2014,02,06,13,22,0.30
2014,02,06,13,23,0.30
2014,02,06,13,24,0.40
2014,02,06,13,25,0.40
2014,02,06,13,26,0.40
2014,02,06,13,27,0.40
2014,02,06,13,28,0.40
2014,02,06,13,29,0.30
2014,02,06,13,30,0.40
2014,02,06,13,31,0.40
2014,02,06,13,32,0.40
2014,02,06,13,33,0.30
2014,02,06,13,34,0.30
2014,02,06,13,35,0.30
2014,02,06,13,36,0.30
2014,02,06,13,37,0.30
2014,02,06,13,38,0.40
2014,02,06,13,39,0.50
2014,02,06,13,40,0.60
2014,02,06,13,41,0.60
2014,02,06,13,42,0.60
2014,02,06,13,43,0.70
2014,02,06,13,44,0.70
2014,02,06,13,45,0.60
2014,02,06,13,46,0.60
2014,02,06,13,47,0.60
2014,02,06,13,48,0.50
2014,02,06,13,49,0.50
2014,02,06,13,50,0.50
2014,02,06,13,51,0.50
2014,02,06,13,52,0.50
2014,02,06,13,53,0.50
2014,02,06,13,54,0.50
2014,02,06,13,55,0.50
2014,02,06,13,56,0.50
2014,02,06,13,57,0.50
2014,02,06,13,58,0.50
2014,02,06,13,59,0.50
2014,02,06,14,00,0.50
2014,02,06,14,01,0.40
2014,02,06,14,02,0.50
2014,02,06,14,03,0.50
2014,02,06,14,04,0.60
2014,02,06,14,05,0.60
2014,02,06,14,06,0.60
2014,02,06,14,07,0.60
2014,02,06,14,08,0.50
2014,02,06,14,09,0.40
2014,02,06,14,10,0.40
2014,02,06,14,11,0.30
2014,02,06,14,12,0.30
2014,02,06,14,13,0.30
2014,02,06,14,14,0.30
2014,02,06,14,15,0.40
2014,02,06,14,16,0.40
2014,02,06,14,17,0.50
2014,02,06,14,18,0.60
2014,02,06,14,19,0.60
2014,02,06,14,20,0.70
2014,02,06,14,21,0.70
2014,02,06,14,22,0.70
2014,02,06,14,23,0.70
2014,02,06,14,24,0.80
2014,02,06,14,25,0.80
2014,02,06,14,26,0.80
2014,02,06,14,27,0.80
2014,02,06,14,28,0.80
2014,02,06,14,29,0.80
2014,02,06,14,30,0.70
2014,02,06,14,31,0.70
2014,02,06,14,32,0.70
2014,02,06,14,33,0.70
2014,02,06,14,34,0.70
2014,02,06,14,35,0.70
2014,02,06,14,36,0.70
2014,02,06,14,37,0.70
2014,02,06,14,38,0.60
2014,02,06,14,39,0.60
2014,02,06,14,40,0.60
2014,02,06,14,41,0.60
2014,02,06,14,42,0.50
2014,02,06,14,43,0.40
2014,02,06,14,44,0.40
2014,02,06,14,45,0.40
2014,02,06,14,46,0.30
2014,02,06,14,47,0.30
2014,02,06,14,48,0.30
2014,02,06,14,49,0.30
2014,02,06,14,50,0.30
2014,02,06,14,51,0.30
2014,02,06,14,52,0.40
2014,02,06,14,53,0.40
2014,02,06,14,54,0.40
2014,02,06,14,55,0.40
2014,02,06,14,56,0.40
2014,02,06,14,57,0.40
2014,02,06,14,58,0.50
2014,02,06,14,59,0.50
2014,02,06,15,00,0.60
2014,02,06,15,01,0.50
2014,02,06,15,02,0.50
2014,02,06,15,03,0.40
2014,02,06,15,04,0.30
2014,02,06,15,05,0.30
2014,02,06,15,06,0.20
2014,02,06,15,07,0.20
2014,02,06,15,08,0.20
2014,02,06,15,09,0.20
2014,02,06,15,10,0.20
2014,02,06,15,11,0.20
2014,02,06,15,12,0.20
2014,02,06,15,13,0.20
2014,02,06,15,14,0.20
2014,02,06,15,15,0.20
2014,02,06,15,16,0.20
2014,02,06,15,17,0.20
2014,02,06,15,18,0.20
2014,02,06,15,19,0.20
2014,02,06,15,20,0.30
2014,02,06,15,21,0.30
2014,02,06,15,22,0.40
2014,02,06,15,23,0.40
2014,02,06,15,24,0.40
2014,02,06,15,25,0.40
2014,02,06,15,26,0.40
2014,02,06,15,27,0.40
2014,02,06,15,28,0.40
2014,02,06,15,29,0.30
2014,02,06,15,30,0.30
2014,02,06,15,31,0.30
2014,02,06,15,32,0.40
2014,02,06,15,33,0.30
2014,02,06,15,34,0.40
2014,02,06,15,35,0.40
2014,02,06,15,36,0.40
2014,02,06,15,37,0.40
2014,02,06,15,38,0.40
2014,02,06,15,39,0.40
2014,02,06,15,40,0.30
2014,02,06,15,41,0.30
2014,02,06,15,42,0.30
2014,02,06,15,43,0.30
2014,02,06,15,44,0.30
2014,02,06,15,45,0.30
2014,02,06,15,46,0.30
2014,02,06,15,47,0.30
2014,02,06,15,48,0.30
2014,02,06,15,49,0.30
2014,02,06,15,50,0.30
2014,02,06,15,51,0.40
2014,02,06,15,52,0.40
2014,02,06,15,53,0.40
2014,02,06,15,54,0.40
2014,02,06,15,55,0.40
2014,02,06,15,56,0.40
2014,02,06,15,57,0.40
2014,02,06,15,58,0.40
2014,02,06,15,59,0.40
2014,02,06,16,00,0.40
2014,02,06,16,01,0.40
2014,02,06,16,02,0.40
2014,02,06,16,03,0.40
2014,02,06,16,04,0.40
2014,02,06,16,05,0.40
2014,02,06,16,06,0.40
2014,02,06,16,07,0.40
2014,02,06,16,08,0.40
2014,02,06,16,09,0.40
2014,02,06,16,10,0.30
2014,02,06,16,11,0.30
2014,02,06,16,12,0.30
2014,02,06,16,13,0.30
2014,02,06,16,14,0.20
2014,02,06,16,15,0.20
2014,02,06,16,16,0.20
2014,02,06,16,17,0.20
2014,02,06,16,18,0.20
2014,02,06,16,19,0.30
2014,02,06,16,20,0.30
2014,02,06,16,21,0.30
2014,02,06,16,22,0.30
2014,02,06,16,23,0.20
2014,02,06,16,24,0.20
2014,02,06,16,25,0.20
2014,02,06,16,26,0.20
2014,02,06,16,27,0.20
2014,02,06,16,28,0.20
2014,02,06,16,29,0.20
2014,02,06,16,30,0.10
2014,02,06,16,31,0.10
2014,02,06,16,32,0.10
2014,02,06,16,33,0.10
2014,02,06,16,34,0.10
2014,02,06,16,35,0.10
2014,02,06,16,36,0.10
2014,02,06,16,37,0.10
2014,02,06,16,38,0.10
2014,02,06,16,39,0.00
2014,02,06,16,40,0.00
2014,02,06,16,41,0.00
2014,02,06,16,42,-0.10
2014,02,06,16,43,-0.10
2014,02,06,16,44,-0.20
2014,02,06,16,45,-0.20
2014,02,06,16,46,-0.20
2014,02,06,16,47,-0.20
2014,02,06,16,48,-0.20
2014,02,06,16,49,-0.30
2014,02,06,16,50,-0.30
2014,02,06,16,51,-0.40
2014,02,06,16,52,-0.40
2014,02,06,16,53,-0.50
2014,02,06,16,54,-0.50
2014,02,06,16,55,-0.60
2014,02,06,16,56,-0.60
2014,02,06,16,57,-0.60
2014,02,06,16,58,-0.60
2014,02,06,16,59,-0.70
2014,02,06,17,00,-0.70
2014,02,06,17,01,-0.70
2014,02,06,17,02,-0.70
2014,02,06,17,03,-0.70
2014,02,06,17,04,-0.80
2014,02,06,17,05,-0.80
2014,02,06,17,06,-0.80
2014,02,06,17,07,-0.80
2014,02,06,17,08,-0.80
2014,02,06,17,09,-0.80
2014,02,06,17,10,-0.80
2014,02,06,17,11,-0.80
2014,02,06,17,12,-0.90
2014,02,06,17,13,-0.90
2014,02,06,17,14,-0.90
2014,02,06,17,15,-0.90
2014,02,06,17,16,-0.90
2014,02,06,17,17,-0.90
2014,02,06,17,18,-0.90
2014,02,06,17,19,-0.90
2014,02,06,17,20,-0.90
2014,02,06,17,21,-1.00
2014,02,06,17,22,-1.00
2014,02,06,17,23,-1.00
2014,02,06,17,24,-1.00
2014,02,06,17,25,-1.00
2014,02,06,17,26,-1.00
2014,02,06,17,27,-1.00
2014,02,06,17,28,-1.00
2014,02,06,17,29,-1.00
2014,02,06,17,30,-1.00
2014,02,06,17,31,-1.10